Daily Archive Betting Singles

 

Daily Single Archive

Here you can check all our past performance related to Daily Football Fixed Matches. Every betting pick is carefully analyst and all information about the selected match is taken into consideration. Take a look at our past performance to understand the odds and matches delivered to our subscribers.

Daily Single Fixed Tips Archive

DAILY SINGLES ARCHIVE

OCTOBER   W |  1 L

DATE MATCH Tip Odds Result
01.10.2022 Lisen – Karvina 1 2.10 1 : 2 L
02.10.2022
03.10.2022
04.10.2022
05.10.2022
06.10.2022
07.10.2022
08.10.2022
09.10.2022
10.10.2022
11.10.2022
12.10.2022
13.10.2022
14.10.2022
15.10.2022
16.10.2022
17.10.2022
18.10.2022
19.10.2022
20.10.2022
21.10.2022
22.10.2022
23.10.2022
24.10.2022
25.10.2022
26.10.2022
27.10.2022
28.10.2022
29.10.2022
30.10.2022
31.10.2022

 

SEPTEMBER  26 W |  3 L

DATE MATCH Tip Odds Result
01.09.2022 M. Nazareth – Ironi Tiberias 1 2.50 2 : 1 W
02.09.2022 Concarneau – Nancy 1 2.10 1 : 2 L
03.09.2022 Hallescher – Verl 1 2.30 5 : 1 W
04.09.2022 Valerenga – Lillestrom 1 2.20 3 : 1 W
05.09.2022 America De Cali – Dep. Cali 1 2.00 1 : 0 W
06.09.2022 Temperley – Ferro 1 2.40 1 : 0 W
07.09.2022 CD Santa – Cruz Rangers 1 2.10 2 : 1 W
08.09.2022 Hearts – Basaksehir 2 2.30 0 : 4 W
09.09.2022 Tychy – Odra Opole 1 2.00 2 : 0 W
10.09.2022 Dijon – Sochaux 2 2.40 0 : 2 W
11.09.2022 Asteras Tripolis – Aris 2 2.20 0 : 2 W
12.09.2022 Bnei Yehuda – Hapoel Petah Tikva 1 2.60 1 : 0 W
13.09.2022 Barrow – Doncaster 1 2.10 2 : 0 W
14.09.2022 Baroka – Pretoria Callies 1 2.20 3 : 1 W
15.09.2022 Liverpool M. – Penarol 2 2.30 0 : 1 W
16.09.2022 Galway – Cork City 1 2.30 2 : 1 W
17.09.2022 Altach – A. Klagenfurt 2 2.30 1 : 4 W
18.09.2022 Levski Sofia – CSKA Sofia 1 2.20 2 : 0 W
19.09.2022 Club Lujan – Laferrere Btts / Yes 2.30 1 : 4 W
20.09.2022 Once Caldas – Envigado Btts / Yes 2.30 1 : 0 L
21.09.2022 La Equidad – Deportivo Pasto Btts / Yes 2.30 2 : 3 W
22.09.2022 Kazakhstan – Belarus 1 2.10 2 : 1 W
23.09.2022 Georgia – North Macedonia 1 2.10 2 : 0 W
24.09.2022 Israel – Albania 1 2.25 2 : 1 W
25.09.2022 Austria – Croatia 2 2.30 1 : 3 W
26.09.2022 Ferro – Estudiantes Rio Cuarto Btts / Yes 2.30 0 : 0 L
27.09.2022 Greece – Northern Ireland 1 2.10 3 : 1 W
28.09.2022 Fluminense – Juventude 1/1 2.20 2:0/4:0 W
29.09.2022 / / / /
30.09.2022 Dunkerque – Stade Briochin 1 2.00 1 : 0 W

 

AUGUST 28 W | 3 L

DATE MATCH Tip Odds Result
01.08.2022 Sport Boys – Cesar Vallejo 2 2.20 1 : 2 W
02.08.2022 Carmarthen Town – Llantwit Major 1 2.30 4 : 1 W
03.08.2022 Dun. Streda (Svk) – FCSB (Rou) 2 2.40 0 : 1 W
04.08.2022 Eastern Company – Enppi 2 2.20 0 : 2 W
05.08.2022 Delmenhorst – Holstein Kiel II 1 2.20 2 : 1 W
06.08.2022 Wolfsberger AC – LASK 2 2.30 1 : 5 W
07.08.2022 Antalyaspor – Galatasaray 2 2.30 0 : 1 W
08.08.2022 S. Rzeszow – Ruch Chorzow 2 2.40 2 : 3 W
09.08.2022 Freiburg II – Hallescher 1 2.20 2 : 0 W
10.08.2022 Selfoss – Thor Akureyri 1 2.00 2 : 1 W
11.08.2022 Aris (Gre) – Maccabi Tel Aviv (Isr) 1 2.10 2 : 1 W
12.08.2022 Freiburg – Dortmund 2 2.30 1 : 3 W
13.08.2022 Maidstone – York 1 2.30 2 : 1 W
14.08.2022 St. Truiden – Anderlecht 2 2.10 0 : 3 W
15.08.2022 Litex Lovech – Ludogorets II 1 2.40 3 : 1 W
16.08.2022 Exeter – Wycombe 1 2.30 3 : 1 W
17.08.2022 Maccabi Haifa (Isr) – Crvena zvezda (Srb) 1 2.30 3 : 2 W
18.08.2022 Rakow (Pol) – Slavia Prague (Cze) 2 2.30 2 : 1 L
19.08.2022 Avranches – Chateauroux 2 2.30 1 : 2 W
20.08.2022 Atromitos – OFI Crete 1 2.20 3 : 1 W
21.08.2022 Almirante Brown – CA Mitre 1 2.20 2 : 0 W
22.08.2022 Nottingham U21 – Middlesbrough U21 2 2.20 1 : 4 W
23.08.2022 Benfica (Por) Dyn. Kyiv (Ukr) 1/1 2.10 3:0/3:0 W
24.08.2022 AmaZulu – Golden Arrows 1 2.25 0 : 1 L
25.08.2022 AEK Larnaca (Cyp) – Dnipro-1 (Ukr) 1 2.00 3 : 0 W
26.08.2022 Galway – UC Dublin 1 2.10 2 : 3 L
27.08.2022 Verl – Zwickau 1 2.30 3 : 0 W
28.08.2022 Lorient – Clermont 1 2.10 2 : 1 W
29.08.2022 Atl. Rafaela – San Martin S.J. 1 2.40 3 : 0 W
30.08.2022 Corinthians – Bragantino 1 2.10 1 : 0 W
31.08.2022 Montpellier – AC Ajaccio 1 2.20 2 : 0 W

 

JULY 30 W |  1 L

DATE MATCH Tip Odds Result
01.07.2022 KR Reykjavik – Vikingur Reykjavik 2 2.50 0 : 3 W
02.07.2022 Ostersund – Utsikten 2 2.20 0 : 3 W
03.07.2022 Aalesund – Stromsgodset 1 2.20 1 : 0 W
04.07.2022 Sporting Kansas City – New York Red Bulls 2 2.30 0 : 1 W
05.07.2022 Delfin – Gualaceo 1 2.00 2 : 0 W
06.07.2022 FC Tokyo – Hokkaido Consadole Sapporo 1 2.10 3 : 0 W
07.07.2022 Bala (Wal) – Sligo Rovers (Irl) 2 2.30 1 : 2 W
08.07.2022 Estudiantes L.P. (Arg) – Fortaleza (Bra) 1 2.00 3 : 0 W
09.07.2022 Excursionistas – Midland 1 2.20 1 : 0 W
10.07.2022 Avispa Fukuoka – Kyoto 1 2.20 1 : 0 W
11.07.2022 KFUM Oslo – Start 2 2.45 0 : 1 W
12.07.2022 Manchester Utd (Eng) – Liverpool (Eng) 1 2.40 4 : 0 W
13.07.2022 Al Masry – Pharco 1 2.10 0 : 0 L
14.07.2022 Manta – Olmedo 1 2.50 2 : 1 W
15.07.2022 Libertad – EL Nacional 1 2.30 1 : 0 W
16.07.2022 Independiente Chivilcoy – Circulo Deportivo 1 2.10 1 : 0 W
17.07.2022 Leiknir – KA Akureyri 2 2.20 0 : 5 W
18.07.2022 Grorud – Mjondalen 2 2.40 0 : 1 W
19.07.2022 Deportivo Santani – Independiente FBC 2 2.45 0 : 1 W
20.07.2022 Pereira – Patriotas 1 2.20 2 : 0 W
21.07.2022 Mushuc Runa – Cumbaya 1 2.10 1 : 0 W
22.07.2022 R. Rzeszow – Wisla 2 2.20 0 : 2 W
23.07.2022 Waregem – Seraing 1 2.10 2 : 0 W
24.07.2022 Hartberg – Altach 1 2.10 2 : 1 W
25.07.2022 Inter Turku – Honka 2 2.40 0 : 1 W
26.07.2022 Selfoss – Afturelding 2 2.30 1 : 4 W
27.07.2022 Getafe (Esp) – Elche (Esp) 2 2.30 0 : 1 W
28.07.2022 Shkendija (Mkd) – Valmiera (Lat) 1 2.15 3 : 1 W
29.07.2022 Godoy Cruz – Velez Sarsfield 1 2.10 1 : 1 L
30.07.2022 Chicago Fire – Atlanta United 1 2.10 0 : 0 L
31.07.2022 Tromsdalen – Levanger 2 2.40 0 : 4 W

 

JUNE 29 W |  1 L

DATE MATCH Tip Odds Result
01.06.2022 Macae – Angra dos Reis 1 2.20 4 : 0 W
02.06.2022 Cartagena – Leones 2 2.20 0 : 1 W
03.06.2022 Wolfsberger AC (Am) – Vocklamarkt 1 2.10 1 : 0 W
04.06.2022 Sagamihara – Giravanz Kitakyushu 1 2.30 3 : 2 W
05.06.2022 Malawi – Ethiopia 1 2.10 2 : 1 W
06.06.2022 Club A. Guemes – Estudiantes Rio Cuarto 1 2.30 2 : 0 W
07.06.2022 Bosnia & Herzegovina – Romania 1 2.00 1 : 0 W
08.06.2022 Belgium – Poland 3+ 2.00 6 : 1 W
09.06.2022 Bragantino – Flamengo RJ 1 2.40 1 : 0 W
10.06.2022 Ind. Medellin – Envigado 3+ 2.00 2 : 1 W
11.06.2022 HJS – Honka Akatemia 1 2.40 5 : 2 W
12.06.2022 VfL Vichttal – Frechen 2 2.40 0 : 4 W
13.06.2022 Rejiche – CS Sfaxien 3+ 2.00 2 : 2 W
14.06.2022 Costa Rica – New Zealand 1 2.20 1 : 0 W
15.06.2022 Atl. Tucuman – Lanus 1 2.40 2 : 1 W
16.06.2022 Goias – Internacional 2 2.30 1 : 2 W
17.06.2022 Racing Club – Velez Sarsfield 1 2.20 2 : 0 W
18.06.2022 Al Masry – El Gouna 1 2.20 1 : 0 W
19.06.2022 Atletico-MG – Flamengo RJ 1 2.00 2 : 0 W
20.06.2022 Fram – Vestmannaeyjar 1 2.10 3 : 3 L
21.06.2022 Halmstad (Swe) – Varnamo (Swe) 1 2.40 1 : 0 W
22.06.2022 JaPS – Mikkelin 2 2.30 1 : 4 W
23.06.2022 Corinthians – Santos 1 2.15 4 : 0 W
24.06.2022 Legnica (Pol) – Zaglebie (Pol) 1 2.50 2 : 1 W
25.06.2022 Zacatecas Mineros – Celaya 1 2.20 1 : 0 W
26.06.2022 Chiba – Verdy 1 2.20 3 : 1 W
27.06.2022 Bray – Wexford 3+ 2.00 2 : 2 W
28.06.2022 Alagoinhas – Santa Cruz 2 2.50 1 : 4 W
29.06.2022 Cruzeiro – Sport Recife 3+ 2.00 2 : 1 W
30.06.2022 Gaziantep (Tur) – FC Hermannstadt (Rou) 1 2.00 1 : 0 W

 

MAY  29 W |  2 L

DATE MATCH Tip Odds Result
01.05.2022 Coritiba – Fluminense 1 2.45 3 : 2 W
02.05.2022 Oxford City – St. Albans 1 2.00 3 : 1 W
03.05.2022 Union de Santa Fe – Defensa y Justicia 2 2.40 1 : 2 W
04.05.2022 Triestina – Pro Patria 1 2.00 2 : 1 W
05.05.2022 Guadalupe – Saprissa 2 2.30 1 : 2 W
06.05.2022 Crotone – Parma 2 2.50 0 : 1 W
07.05.2022 Bradford PA – Southport 2 2.50 0 : 5 W
08.05.2022 Nijmegen – G.A. Eagles 1 2.10 1 : 0 W
09.05.2022 Alajuelense – Herediano 1 2.20 2 : 1 W
10.05.2022 All Boys – Temperley 1 2.30 2 : 0 W
11.05.2022 Sittard – Vitesse 2 2.30 1 : 2 W
12.05.2022 L.R. Vicenza – Cosenza 1 2.00 1 : 0 W
13.05.2022 Sleipner – Syrianska 2 2.25 1 : 2 W
14.05.2022 Hearts – Rangers 2 2.30 1 : 3 W
15.05.2022 SJK Akatemia – TPS 2 2.00 0 : 2 W
16.05.2022 Huddersfield – Luton 1 2.20 1 : 0 W
17.05.2022 Curico Unido – A. Italiano 1 2.00 4 : 1 W
18.05.2022 Eintracht Frankfurt – Rangers 1 2.30 1 : 1 L
19.05.2022 Utrecht – Vitesse 1 2.00 3 : 1 W
20.05.2022 Cosenza – L.R. Vicenza 1 2.30 2 : 0 W
21.05.2022 Wolfsberger AC – Rapid Vienna 1 2.20 2 : 1 W
22.05.2022 Dep. Municipal – Alianza Lima 2 2.30 0 : 3 W
23.05.2022 Nublense – Curico Unido 3+ 2.00 3 : 1 W
24.05.2022 U. De Concepcion – S. Morning 3+ 2.10 5 : 1 W
25.05.2022 Chacaritas – Ind. Juniors 1 2.20 2 : 0 W
26.05.2022 Gremio Anapolis – Brasiliense 2 2.00 1 : 2 W
27.05.2022 Al-Hazem – Al Batin 2 2.20 2 : 3 W
28.05.2022 Ghazl El Mahallah – El Gaish 2 2.55 0 : 1 W
29.05.2022 B.93 – Thisted FC 1 2.30 0 : 1 L
30.05.2022 KaPa – Kiffen 1 2.30 3 : 1 W
31.05.2022 Bogota – Fortaleza 2 2.30 0 : 2 W

 

APRIL  29 W |  1 L

DATE MATCH Tip Odds Result
01.04.2022 Amstetten – A. Lustenau 2 2.10 0 : 2 W
02.04.2022 Motherwell – St. Mirren 1 2.30 4 : 2 W
03.04.2022 Dock Sud – Villa San Carlos 3+ 2.00 3 : 1 W
04.04.2022 Nancy – AC Ajaccio 2 2.20 0 : 2 W
05.04.2022 Braga U23 – Benfica U23 3+ 2.10 1 : 5 W
06.04.2022 TB Berlin – Hertha Berlin II 4+ 2.40 0 : 4 W
07.04.2022 Stade Tunisien – Gafsa Btts-Yes 2.30 2 : 1 W
08.04.2022 Zaglebie – Stal Mielec 1 2.00 3 : 1 W
09.04.2022 Frosinone – Cremonese 1 2.30 2 : 1 W
10.04.2022 Juventus U23 – Renate 1 2.60 2 : 1 W
11.04.2022 Kristianstads – Nosaby IF 1 2.00 3 : 0 W
12.04.2022 Rangers – Deportes Temuco 1 2.10 3 : 2 W
13.04.2022 Liverpool – Benfica 3+ 2.00 3 : 3 W
14.04.2022 Aarhus – Viborg 2 2.20 0 : 2 W
15.04.2022 Oldham – Northampton 2 2.20 0 : 2 W
16.04.2022 S. Wanderers – D. Puerto Montt 1 2.20 2 : 0 W
17.04.2022 Union Berlin – Eintracht Frankfurt 1 2.10 2 : 0 W
18.04.2022 Sonderjyske – Aarhus 1 2.50 2 : 1 W
19.04.2022 Nublense – Everton 1 2.20 2 : 1 W
20.04.2022 Celta Vigo – Getafe 1 2.10 0 : 2 L
21.04.2022 Levante – Sevilla 2 2.20 2 : 3 W
22.04.2022 Wolfsburg – Mainz 1 2.40 5 : 0 W
23.04.2022 Chippenham – Dulwich Hamlet 1 2.20 2 : 0 W
24.04.2022 Paderborn – Hannover 1 2.20 3 : 0 W
25.04.2022 Aluminij – Celje 2 2.00 0 : 6 W
26.04.2022 Avai – Goias 1 2.20 3 : 2 W
27.04.2022 Sonderjyske – Odense 2 2.50 1 : 2 W
28.04.2022 Sandecja Nowy S. – Podbeskidzie 2 2.40 0 : 1 W
29.04.2022 Braunschweig – Magdeburg 3+ 2.00 2 : 1 W
30.04.2022 Villa Espanola – Rampla Juniors 1 2.20 3 : 2 W